Location: Meilhards
(45.5592°N, 1.6496°E)
Time: 04:34:11
(UTC+00:00)

Daily predictions for brighter satellites

Satellite Brightness Start Highest point End
(mag) Time Altitude Azimuth Time Altitude Azimuth Time Altitude Azimuth
ATLAS CENTAUR R/B 3.9 00:07:30 16° WSW 00:12:13 72° NNW 00:27:02 10° NE
Cosmos 1825 3.6 00:13:02 26° ESE 00:13:29 26° E 00:16:41 10° NNE
Cosmos 1812 Rocket 4.0 00:14:33 10° NNW 00:18:44 47° W 00:19:25 43° WSW
Cosmos 1408 2.8 00:19:18 54° ESE 00:19:29 54° E 00:23:06 10° NNE
Cosmos 990 Rocket 4.2 00:15:05 10° NNW 00:20:16 64° ENE 00:22:37 32° SE
SL-16 R/B 2.6 00:19:56 29° SW 00:22:46 58° WNW 00:28:22 10° NNE
Cosmos 405 Rocket 3.4 00:23:36 38° ESE 00:23:53 39° E 00:27:20 10° NNE
Cosmos 2058 4.2 00:24:22 26° ESE 00:25:18 29° E 00:28:51 10° NNE
USA 229 DEB 3.5 00:22:35 37° SSW 00:25:20 74° SE 00:32:08 10° NE
USA 229 3.5 00:22:43 37° SSW 00:25:26 73° SE 00:32:14 10° NE
Cosmos 2237 Rocket 4.1 00:21:46 10° W 00:26:12 23° NW 00:30:40 10° N
Cosmos 2221 4.1 00:22:37 10° NNE 00:26:22 28° ENE 00:28:24 20° ESE
X-37B 2.7 00:28:47 20° E 00:28:47 20° E 00:29:52 10° E
Cosmos 1898 Rocket 3.7 00:28:21 10° NNW 00:33:35 67° ENE 00:36:10 29° SE
Cosmos 1937 Rocket 4.2 00:28:38 10° NNW 00:33:50 50° ENE 00:37:19 20° SE
NOSS 8 (F) 4.3 00:33:59 68° NW 00:33:59 68° NW 00:36:53 10° NE
NOSS 3-1 (C) 3.5 00:31:10 28° WSW 00:34:07 67° NW 00:40:27 10° NE
Cosmos 2369 Rocket 2.2 00:30:14 10° NNW 00:36:00 83° ENE 00:38:58 30° SSE
Cosmos 1356 3.2 00:37:29 88° WSW 00:37:30 88° W 00:40:55 10° N
SJ 16-02 2.2 00:35:46 10° NW 00:39:43 34° WSW 00:40:01 33° WSW
GP-B 4.2 00:36:45 10° NNW 00:40:45 33° W 00:41:51 29° WSW
NOSS 2-3 (E) 4.0 00:42:31 34° WSW 00:44:09 58° NW 00:48:58 10° NNE
NOSS 3-1 (A) 3.2 00:42:41 37° SW 00:45:00 90° SE 00:51:20 10° NE
USA 215 4.3 00:40:29 10° NE 00:46:37 45° NNW 00:52:45 10° W
Cosmos 1825 Rocket 3.9 00:45:41 41° SW 00:46:50 54° WNW 00:51:13 10° N
ATLAS 5 CENTAUR R/B 3.2 00:48:04 18° ESE 00:48:23 18° ESE 00:51:14 10° ENE
Cosmos 2263 4.2 00:43:57 10° NNW 00:49:40 79° ENE 00:53:06 25° SSE
CZ-4 R/B 3.9 00:47:21 10° NNE 00:52:00 67° ESE 00:53:33 41° S
Helios 1B rocket 4.4 00:49:30 10° NE 00:52:31 20° E 00:54:08 16° ESE
USA 308 4.1 00:53:27 27° SE 00:53:27 27° SE 00:56:56 10° ENE
Cosmos 1633 4.4 00:53:22 18° ESE 00:54:23 21° E 00:57:04 10° NE
Cosmos 1932 4.4 00:48:39 10° NW 00:54:55 84° NE 01:00:03 16° SE
Meteor 2-2 Rocket 4.4 00:50:44 10° N 00:56:48 81° E 01:00:07 28° SSE
NOSS 8 (H) 4.3 01:00:24 60° WNW 01:00:35 62° NW 01:03:31 10° NNE
Helios 1A 2.9 01:00:06 44° SSE 01:01:23 88° ENE 01:05:37 10° NNW
Cosmos 1606 3.8 00:58:53 10° N 01:02:31 39° ENE 01:04:12 25° SE
Cosmos 468 Rocket 4.1 01:00:57 36° SW 01:03:02 68° WNW 01:08:16 10° NNE
SL-16 R/B 3.1 00:59:52 13° SE 01:05:14 55° ENE 01:11:15 10° N
USA 305 3.5 01:10:32 38° SSE 01:11:04 40° SE 01:15:03 10° ENE
Cosmos 858 Rocket 4.4 01:05:57 10° NNW 01:11:16 86° WSW 01:14:06 28° SSE
USA 290 3.8 01:11:15 24° ESE 01:11:38 25° ESE 01:14:20 10° NE
Cosmos 1953 Rocket 4.2 01:10:29 34° WSW 01:11:46 44° WNW 01:16:01 10° N
Cosmos 1092 Rocket 4.4 01:11:05 23° SSE 01:14:48 55° E 01:20:47 10° NNE
Lacrosse 4 Rocket 2.9 01:11:02 10° NNW 01:14:51 35° NE 01:18:34 10° ESE
Cosmos 2098 Rocket 3.4 01:15:09 33° S 01:17:38 84° E 01:22:09 10° N
Cosmos 1763 Rocket 3.9 01:15:44 29° SW 01:18:02 51° WNW 01:23:03 10° NNE
BREEZE-M R/B 3.1 01:18:12 35° SSE 01:18:38 36° SE 01:22:39 10° ENE
USA 267 3.9 01:19:19 28° SSW 01:20:50 31° SW 01:26:33 10° WNW
Cosmos 1437 Rocket 2.8 01:17:44 10° NNW 01:21:33 56° W 01:22:18 46° SW
Resurs 1-4 Rocket 2.4 01:16:18 10° NNE 01:21:35 61° E 01:24:23 27° S
Cosmos 1892 4.4 01:21:02 20° W 01:22:01 22° WNW 01:25:08 10° NNW
OE (NEXTSAT) 4.2 01:22:34 48° WSW 01:23:26 85° S 01:26:54 10° E
SL-4 R/B 3.6 01:21:39 10° WNW 01:25:03 30° N 01:28:15 10° ENE
Cosmos 1943 Rocket 3.6 01:24:50 10° NW 01:28:41 20° W 01:29:32 19° WSW
NOSS 2-2 (D) 3.6 01:30:21 37° SSE 01:31:01 43° ESE 01:34:26 10° NE
Cosmos 1842 Rocket 3.6 01:27:22 10° NNW 01:31:40 61° W 01:33:14 36° SSW
NPP 4.0 01:27:25 10° NNE 01:32:46 61° ESE 01:35:57 24° S
ADEOS II 3.2 01:28:17 10° NNE 01:33:08 36° E 01:36:50 16° SSE
USA 306 3.0 01:32:05 39° SSW 01:33:24 57° SE 01:37:34 10° ENE
Cosmos 921 Rocket 2.8 01:32:38 38° SSW 01:34:12 88° ESE 01:38:25 10° NNE
Lacrosse 5 rocket 4.1 01:31:44 10° NNW 01:34:15 18° NNE 01:36:47 10° ENE
Exosat Rocket 4.4 01:30:27 22° SW 01:34:19 49° WNW 01:39:26 10° NNE
Meteor 2-8 Rocket 4.4 01:29:02 10° NNW 01:35:09 71° W 01:38:53 25° S
FALCON 9 DEB 3.3 01:32:43 10° NW 01:36:07 70° NNE 01:39:29 10° ESE
Cosmos 1943 3.5 01:33:25 26° SW 01:36:31 59° WNW 01:42:07 10° NNE
MOZ.5/SAFIR/RUBIN 5/SL-8 4.2 01:38:05 31° SSW 01:39:55 48° W 01:44:32 10° NNW
CZ-2D R/B 2.0 01:35:05 10° NNE 01:40:19 84° ESE 01:43:15 27° SSW
Cosmos 1603 4.3 01:41:52 22° SW 01:45:17 50° WNW 01:50:47 10° NNE
Cosmos 2151 3.2 01:44:56 26° SSE 01:47:11 62° E 01:51:21 10° NNE
IDEFIX/ARIANE 42P 4.3 01:43:03 10° NE 01:47:26 26° E 01:51:46 10° SSE
Cosmos 1825 3.8 01:47:48 19° W 01:48:55 22° WNW 01:51:57 10° NNW
Cosmos 1076 Rocket 3.5 01:49:45 31° SSW 01:51:38 66° W 01:55:52 10° N
AQUA 3.9 01:47:35 10° NNE 01:52:22 73° ESE 01:55:17 24° S
Cosmos 1437 2.4 01:52:44 10° NNW 01:55:29 57° W 01:55:51 50° SW
Cosmos 540 Rocket 4.2 01:55:00 21° WSW 01:57:56 42° WNW 02:02:48 10° N
Cosmos 1242 Rocket 3.4 01:55:54 10° NNW 01:59:12 34° W 02:00:05 29° SW
DELTA 2 R/B (1) 3.9 01:57:41 20° WSW 02:01:13 46° S 02:06:29 10° ESE
Cosmos 2058 4.4 02:00:33 19° WSW 02:02:11 24° WNW 02:05:32 10° NNW
X-37B 0.4 02:01:04 18° W 02:03:18 72° S 02:06:29 10° ESE
Cosmos 2221 3.7 02:00:14 10° NNW 02:03:49 26° W 02:05:13 22° WSW
BREEZE-M DEB (TANK) 2.7 02:03:16 10° WNW 02:05:45 39° N 02:08:00 10° E
Cosmos 841 Rocket 4.2 02:03:07 20° WSW 02:06:14 42° WNW 02:11:08 10° N
IRS-1D 4.0 02:02:07 10° NNE 02:07:10 55° E 02:11:14 15° S
NOSS 2-2 (E) 3.5 02:08:02 25° WSW 02:09:50 54° NW 02:13:35 10° NNE
Cosmos 1553 Rocket 4.2 02:04:24 10° N 02:10:44 74° E 02:16:55 10° SSE
Cosmos 2292 Rocket 3.0 02:09:52 24° SSE 02:11:27 58° E 02:14:23 10° NNE
FALCON 9 DEB 4.4 02:12:00 10° NW 02:14:59 40° NNE 02:17:58 10° E
GPS 2-04 Rocket1 4.1 02:15:43 19° S 02:15:43 19° S 02:18:33 10° SE
USA 307 2.9 02:14:11 20° WSW 02:17:05 77° NNW 02:21:22 10° NE
Cosmos 1782 3.3 02:13:19 10° N 02:17:17 59° E 02:21:15 10° SSE
USA 281 3.8 02:11:23 10° SE 02:17:49 61° ENE 02:24:18 10° NNW
Cosmos 1271 Rocket 4.0 02:15:37 10° N 02:19:09 39° ENE 02:22:40 10° SE
Cosmos 2369 Rocket 3.9 02:16:02 10° WNW 02:19:14 15° W 02:20:43 14° WSW
Cosmos 2026 Rocket 4.2 02:16:00 19° SSW 02:20:32 62° WNW 02:26:52 10° N
NOSS 2-2 (C) 3.5 02:21:26 21° WSW 02:23:31 51° NW 02:27:12 10° NNE
CZ-4C R/B 4.1 02:21:40 10° SE 02:24:59 45° ENE 02:28:19 10° N
Aureole 3 Rocket 4.1 02:21:59 10° NNW 02:25:38 32° W 02:28:38 18° SW
ERBS 3.1 02:24:39 21° S 02:26:14 36° SE 02:29:14 10° ENE
Helios 1B rocket 3.2 02:24:06 10° N 02:27:54 38° WNW 02:30:26 18° SW
Cosmos 1633 4.0 02:27:25 18° WSW 02:28:59 24° WNW 02:31:56 10° NNW
Cosmos 1328 Rocket 4.1 02:26:58 10° N 02:31:17 59° E 02:35:36 10° SSE
FALCON 9 DEB 3.2 02:28:56 10° NW 02:32:00 67° NNE 02:35:04 10° ESE
ATLAS 5 CENTAUR R/B 2.0 02:29:34 17° WSW 02:32:27 50° NW 02:36:49 10° NNE
SL-19 R/B 4.4 02:27:25 10° N 02:32:34 57° WNW 02:36:50 16° SW
USA 308 3.2 02:29:31 14° WSW 02:33:03 62° NNW 02:37:18 10° NE
Cosmos 2298 Rocket 4.1 02:28:51 10° NNW 02:34:07 63° WSW 02:39:23 10° S
SeaSat 1 3.3 02:31:52 10° NE 02:36:36 44° ESE 02:41:18 10° S
FALCON 9 DEB 3.4 02:35:47 10° NW 02:38:53 61° NNE 02:41:57 10° ESE
ADEOS Rocket 3.5 02:33:24 10° S 02:40:37 58° W 02:47:12 10° NNW
Meteor 2-21 4.5 02:36:14 12° S 02:42:04 83° W 02:48:18 10° N
FALCON 9 DEB 3.0 02:39:11 10° NW 02:42:17 77° NNE 02:45:22 10° ESE
Cosmos 1933 4.0 02:40:40 10° NNW 02:44:27 37° W 02:47:30 14° SSW
IRIDIUM 104 4.4 02:39:45 10° N 02:44:54 62° W 02:50:02 10° SSW
Cosmos 2150 Rocket 4.2 02:40:35 10° NNW 02:45:39 53° WSW 02:50:45 10° S
USA 290 4.2 02:44:01 12° WSW 02:46:03 19° WNW 02:48:25 10° N
Cosmos 1833 Rocket 4.2 02:42:16 10° SSE 02:47:06 30° ESE 02:51:57 10° NE
SL-16 R/B 3.6 02:44:57 14° SW 02:49:08 27° W 02:54:18 10° NW
Meteor 1-28 Rocket 3.5 02:45:49 11° S 02:49:17 48° W 02:53:00 10° NNW
DELTA 2 DEB (DPAF) 4.4 02:45:58 10° S 02:50:16 50° W 02:54:37 10° NNW
Tianhe-1 3.5 02:49:48 10° S 02:50:56 12° SSE 02:52:05 10° SE
USA 305 3.7 02:46:50 10° W 02:50:57 47° NNW 02:55:06 10° NE
IRS-P3 4.5 02:46:31 10° NNE 02:51:49 64° ESE 02:57:06 10° S
Lacrosse 4 Rocket 2.5 02:50:02 10° NW 02:53:19 24° WSW 02:56:19 11° SSW
Cosmos 1125 Rocket 3.6 02:48:25 10° NNW 02:53:34 56° WSW 02:58:42 10° S
Cosmos 1151 Rocket 3.1 02:50:44 10° NNW 02:54:56 59° W 02:59:07 10° S
Cosmos 2266 Rocket 4.0 02:50:08 10° S 02:56:15 82° E 03:02:20 10° N
Meteor 1-29 4.3 02:55:05 10° N 02:58:01 27° WNW 03:00:31 12° SW
CZ-4B R/B 4.2 02:54:23 10° NNE 02:59:36 57° ESE 03:04:42 10° S
ARIANE 5 R/B 2.9 02:55:47 10° NNE 03:00:45 60° ESE 03:05:42 10° S
Resurs 1-4 Rocket 3.7 02:57:01 10° NNW 03:00:57 22° WNW 03:04:53 10° WSW
OE (NEXTSAT) 4.3 02:57:30 10° W 03:00:58 88° N 03:04:25 10° E
CZ-4C R/B 2.5 02:56:32 10° SSW 03:01:11 56° ESE 03:06:49 10° NE
Cosmos 1515 Rocket 3.9 02:58:01 10° N 03:02:27 71° E 03:06:53 10° SSE
Cosmos 1766 Rocket 3.9 02:59:09 11° SSW 03:03:19 54° WNW 03:07:43 10° N
SL-4 R/B 2.6 03:01:35 10° WNW 03:05:07 51° NNE 03:08:29 10° E
Cosmos 1408 Rocket 3.7 03:01:29 10° S 03:05:55 83° E 03:10:25 10° N
COSMOS 2441 4.4 03:03:57 10° NNE 03:08:49 84° ESE 03:13:37 10° SSW
USA 238 DEB 4.4 03:02:08 10° NW 03:09:22 67° NE 03:16:54 10° SE
USA 238 4.4 03:02:15 10° NW 03:09:28 67° NE 03:17:00 10° SE
CENTAUR R/B 3.7 03:01:52 10° NW 03:09:55 68° NE 03:18:47 10° SE
Cosmos 2082 Rocket 4.2 03:05:45 10° SSE 03:10:03 23° ESE 03:14:22 10° NE
ADEOS II 3.1 03:08:05 10° N 03:12:45 33° WNW 03:17:24 10° SW
Cosmos 1862 3.3 03:08:50 10° SSW 03:12:53 80° W 03:16:57 10° N
USA 306 4.1 03:09:30 10° W 03:13:29 38° NNW 03:17:29 10° NE
Lacrosse 5 rocket 1.6 03:10:20 10° NW 03:13:55 62° NE 03:17:37 10° ESE
Okean 3 Rocket 4.1 03:10:04 10° SSW 03:14:13 42° WNW 03:18:25 10° N
CZ-2D R/B 4.0 03:16:42 10° NNW 03:19:41 16° WNW 03:22:39 10° W
ASTEX 1 3.9 03:19:21 10° SSW 03:24:04 43° W 03:28:46 10° NNW
Cosmos 1655 Rocket 4.3 03:18:12 10° SSW 03:24:16 55° WNW 03:30:25 10° N
IDEFIX/ARIANE 42P 3.2 03:22:13 10° N 03:27:11 44° WNW 03:32:06 10° SW
Genesis I 4.4 03:27:09 10° NNW 03:31:08 51° NE 03:35:05 10° SE
